Regional Weather Roundup
Issued by NWS

Home | Current Version | Previous Version | Graphics & Text | Print | Product List | Glossary On
Versions: 1 2 3 4 5 6 7 8 9 10 11 12 13 14 15 16 17 18 19 20 21 22 23 24 25 26 27
000
ASUS45 KBOU 301507
RWRCO

WEATHER ROUNDUP FOR COLORADO
NATIONAL WEATHER SERVICE DENVER/BOULDER CO
900 AM MDT SAT APR 30 2016

NOTE: "FAIR" INDICATES FEW OR NO CLOUDS BELOW 12000 FEET WITH NO
SIGNIFICANT WEATHER AND/OR OBSTRUCTIONS TO VISIBILITY.

COZ001>005-013-030-031-301600-
...NORTHWEST COLORADO...

CITY           SKY/WX    TMP DP  RH WIND       PRES   REMARKS
CRAIG          CLOUDY    37  32  82 E5        29.92R
HAYDEN         PTSUNNY   34  30  86 E3        29.91R
MEEKER         CLOUDY    37  30  75 NW3       29.92R
MOUNT WERNER   NOT AVBL
STEAMBOAT SPGS CLOUDY    33  29  88 CALM      29.90R
WALDEN         CLOUDY    28  21  74 NW12      29.88R WCI  18
$$

COZ006>008-011-301600-
...WEST CENTRAL VALLEYS...

CITY           SKY/WX    TMP DP  RH WIND       PRES   REMARKS
GRAND JUNCTION FAIR      46  38  73 SW3       29.90R
MONTROSE       CLOUDY    43  34  70 N9        29.92R
EAGLE          MOSUNNY   39  32  75 W6        29.90S
RIFLE          CLOUDY    43  31  62 W7        29.90R
DELTA          NOT AVBL
NUCLA          NOT AVBL
$$

COZ017>023-064>068-301600-
...SOUTHWEST COLORADO...

CITY           SKY/WX    TMP DP  RH WIND       PRES   REMARKS
DURANGO        FAIR      38  31  76 VRB3      29.90R
CORTEZ         PTSUNNY   44  36  73 CALM      29.90R
PAGOSA SPRINGS CLOUDY    35  33  90 CALM      29.92R
TELLURIDE      FLURRIES  31  30  96 CALM      29.93R
WOLF CREEK PAS FOG       21  21 100 SW7       29.96R VSB 1/2 WCI  13
$$

COZ009-010-012-014-032>034-037-058>063-301600-
...CENTRAL COLORADO...

CITY           SKY/WX    TMP DP  RH WIND       PRES   REMARKS
ASPEN          CLOUDY    34  30  85 N5        29.88R WCI  30
BUENA VISTA    FAIR      27  25  93 CALM      29.88R
COPPER MTN     NOT AVBL
BERTHOUD PASS  CLOUDY    14   3  62 N10G23    29.86R WCI   1
COTTONWOOD PAS FAIR      32  28  86 CALM      29.87R FOG
GUNNISON       CLOUDY    37  30  75 SW10      29.89R
KREMMLING      CLOUDY    32  23  69 N12G17    29.92R WCI  23
LEADVILLE      CLOUDY    25  20  81 NW9       29.86R WCI  15
MONARCH PASS   CLOUDY    21  19  93 MISG      29.99R
SALIDA         CLOUDY    33  29  85 CALM      29.94S
SUNLIGHT       FOG      N/A N/A N/A SW3       29.95R VSB 1/2
WILKERSON PASS CLOUDY   N/A N/A N/A NW3       29.88S
$$

COZ069>075-301600-
...SAN LUIS VALLEY/SANGRE DE CRISTO MOUNTAINS...

CITY           SKY/WX    TMP DP  RH WIND       PRES   REMARKS
ALAMOSA        CLOUDY    33  31  92 CALM      29.87R
LA VETA PASS   CLOUDY    30  28  93 MISG      29.87R FOG
SAGUACHE       LGT SNOW  34  32  93 CALM      29.88R
$$

COZ035-036-038>040-301600-
...NORTHERN COLORADO FRONT RANGE...

CITY           SKY/WX    TMP DP  RH WIND       PRES   REMARKS
DENVER INTL AP LGT SNOW  32  28  85 N16       29.92R FOG     WCI  21
DMNS CITY PARK   N/A     33  31  92 N5G16     29.94R WCI  29
AURORA         MIX PCPN  31  31  99 N15       29.93R WCI  20
FRONT RANGE AP LGT SNOW  30  30 100 N16       29.91R WCI  19
ERIE MUNI ARPT LGT SNOW  35  32  90 N15       29.94R WCI  25
BOULDER MUN AP LGT SNOW  34  34 100 N13       29.94R WCI  25
CENTENNIAL     LGT SNOW  32  30  92 N12       29.92R FOG     WCI  23
BROOMFIELD     LGT SNOW  32  32 100 N9        29.93R WCI  24
FORT COLLINS   FAIR      36  28  75 N16G24    29.96R
LONGMONT       LGT SNOW  38  33  82 N10       29.96R
$$

COZ041-046-047-076>085-087-088-301600-
...PIKES PEAK/PALMER DIVIDE AND SOUTHERN FOOTHILLS...

CITY           SKY/WX    TMP DP  RH WIND       PRES   REMARKS
COLO. SPRINGS  PTSUNNY   34  25  69 N22G29    29.89R WCI  22
A. F. ACADEMY  FLURRIES  32  27  80 N21G26    29.88R WCI  20
SCHRIEVER AFB  NOT AVBL
ELLICOTT       NOT AVBL
FALCON         CLOUDY    32  25  76 N20G29    29.87R WCI  20
FORT CARSON    PTSUNNY   36  28  74 N12       29.88R
LIMON          LGT SNOW  30  29  96 N25       29.87R FOG     WCI  16
MONUMENT HILL  PTSUNNY   27  25  93 N17       29.90R WCI  14
TRINIDAD       CLOUDY    33  30  88 W8        29.88R WCI  26
$$

COZ042>045-048>051-090-091-301600-
...NORTHEAST COLORADO...

CITY           SKY/WX    TMP DP  RH WIND       PRES   REMARKS
GREELEY ARPT   CLOUDY    36  30  80 N17       29.95R
AKRON          LGT SNOW  31  30  96 N22       29.87R VSB 3/4 WCI  18
BURLINGTON     CLOUDY    34  30  85 N15G23    29.83R WCI  24
WRAY           NOT AVBL
STERLING       CLOUDY    34  32  93 N16       29.88R WCI  23
HOLYOKE        NOT AVBL
FORT MORGAN    LGT SNOW  33  31  94 NW15      29.91R WCI  23
$$

COZ086-089-092>099-301600-
...SOUTHEAST COLORADO...

CITY           SKY/WX    TMP DP  RH WIND       PRES   REMARKS
PUEBLO         CLOUDY    42  35  76 W6        29.89R
LA JUNTA       CLOUDY    43  33  68 NW17G25   29.89R
LAMAR          CLOUDY    42  33  70 NW18      29.86R
SPRINGFIELD      N/A     43  35  73 NW25G32   29.84R
$$




USA.gov is the U.S. government's official web portal to all federal, state and local government web resources and services.